Location: Arborea
(39.7744°N, 8.5819°E)
Time: 08:13:59
(UTC+00:00)

Cosmos 1892 - Pass Details

Date: 24 October 2021
Orbit: 501 x 522 km, 82.5° (Epoch: 02 December)

Event Time Altitude Azimuth Distance (km) Brightness Sun altitude
Rises 18:47:08 0° 343° (NNW) 2,610 6.6 -26.3°
Reaches altitude 10° 18:49:22 10° 334° (NNW) 1,718 5.7 -26.7°
Maximum altitude 18:52:48 35° 268° (W) 826 4.2 -27.4°
Enters shadow 18:52:59 35° 261° (W) 830 4.2 -27.4°
